When you browse on this site, cookies collect data to enhance your experience and personalize the content and advertising you see.
Visit our Privacy Policy to learn more. By continuing to use the site, you agree to this use of cookies and data.
  • în România
  • Lista ţărilor
  • Pe 7 zile
  • Temperatura apei
  • Hartă satelitară
  • Meteo pe hartă
  • Widget-uri
  • user-avatar
    Intrare

    Meteo pe oră la Kolesnye Gorki

    Astăzi, 17 Iulie, Miercuri

    Timp Temperatura Precipitaţii Vânt Presiune Umiditate
    00:00 +13°C° 0.1 mm 2 m/s 741 mmHg 98%
    01:00 +13°C° 0.1 mm 2 m/s 741 mmHg 98%
    02:00 +13°C° 0 mm 2 m/s 741 mmHg 99%
    03:00 +13°C° 0 mm 2 m/s 741 mmHg 99%
    04:00 +14°C° 0 mm 2 m/s 741 mmHg 98%
    05:00 +14°C° 0 mm 2 m/s 741 mmHg 98%
    06:00 +15°C° 0 mm 2 m/s 741 mmHg 95%
    07:00 +16°C° 0 mm 2 m/s 741 mmHg 92%
    08:00 +17°C° 0 mm 3 m/s 741 mmHg 92%
    09:00 +18°C° 0.1 mm 3 m/s 741 mmHg 87%
    10:00 +18°C° 0.1 mm 3 m/s 741 mmHg 83%
    11:00 +19°C° 0.1 mm 3 m/s 741 mmHg 78%
    12:00 +19°C° 0.5 mm 3 m/s 741 mmHg 79%
    13:00 +19°C° 0.5 mm 3 m/s 740 mmHg 81%
    14:00 +19°C° 0.5 mm 3 m/s 740 mmHg 82%
    15:00 +18°C° 0.2 mm 3 m/s 740 mmHg 86%
    16:00 +17°C° 0.2 mm 2 m/s 740 mmHg 90%
    17:00 +16°C° 0.2 mm 1 m/s 740 mmHg 94%
    18:00 +16°C° 0.1 mm 1 m/s 740 mmHg 95%
    19:00 +16°C° 0.1 mm 1 m/s 740 mmHg 96%
    20:00 +15°C° 0.1 mm 1 m/s 740 mmHg 97%
    21:00 +15°C° 0.1 mm 1 m/s 740 mmHg 97%
    22:00 +15°C° 0.1 mm 1 m/s 740 mmHg 97%
    23:00 +15°C° 0.1 mm 1 m/s 740 mmHg 98%

    Mâine, 18 Iulie, Joi

    Timp Temperatura Precipitaţii Vânt Presiune Umiditate
    00:00 +15°C° 0 mm 1 m/s 739 mmHg 98%
    01:00 +14°C° 0 mm 1 m/s 739 mmHg 98%
    02:00 +14°C° 0 mm 1 m/s 739 mmHg 98%
    03:00 +14°C° 0 mm 1 m/s 738 mmHg 98%
    04:00 +14°C° 0 mm 1 m/s 738 mmHg 97%
    05:00 +14°C° 0 mm 1 m/s 738 mmHg 97%
    06:00 +14°C° 0 mm 0 m/s 737 mmHg 94%
    07:00 +15°C° 0 mm 0 m/s 737 mmHg 90%
    08:00 +16°C° 0 mm 0 m/s 737 mmHg 87%
    09:00 +17°C° 0.2 mm 0 m/s 737 mmHg 82%
    10:00 +20°C° 0.2 mm 1 m/s 737 mmHg 78%
    11:00 +21°C° 0.2 mm 1 m/s 737 mmHg 73%
    12:00 +21°C° 0.5 mm 1 m/s 737 mmHg 74%
    13:00 +21°C° 0.5 mm 1 m/s 737 mmHg 74%
    14:00 +20°C° 0.5 mm 2 m/s 736 mmHg 75%
    15:00 +21°C° 0.6 mm 1 m/s 736 mmHg 77%
    16:00 +21°C° 0.6 mm 1 m/s 736 mmHg 79%
    17:00 +21°C° 0.6 mm 1 m/s 736 mmHg 81%
    18:00 +20°C° 0.4 mm 1 m/s 736 mmHg 85%
    19:00 +18°C° 0.4 mm 1 m/s 736 mmHg 88%
    20:00 +16°C° 0.4 mm 1 m/s 736 mmHg 91%
    21:00 +15°C° 0 mm 1 m/s 736 mmHg 93%
    22:00 +15°C° 0 mm 1 m/s 736 mmHg 94%
    23:00 +14°C° 0 mm 1 m/s 736 mmHg 96%

    Poimâine, 19 Iulie, Vineri

    Timp Temperatura Precipitaţii Vânt Presiune Umiditate
    00:00 +13°C° 0 mm 1 m/s 736 mmHg 96%
    01:00 +13°C° 0 mm 1 m/s 736 mmHg 97%
    02:00 +13°C° 0 mm 1 m/s 736 mmHg 97%
    03:00 +13°C° 0 mm 1 m/s 736 mmHg 98%
    04:00 +13°C° 0 mm 1 m/s 737 mmHg 98%
    05:00 +13°C° 0 mm 1 m/s 737 mmHg 98%
    06:00 +14°C° 0.1 mm 1 m/s 737 mmHg 97%
    07:00 +14°C° 0.1 mm 1 m/s 737 mmHg 96%
    08:00 +15°C° 0.1 mm 1 m/s 737 mmHg 95%
    09:00 +15°C° 0.2 mm 1 m/s 737 mmHg 94%
    10:00 +15°C° 0.2 mm 1 m/s 737 mmHg 93%
    11:00 +16°C° 0.2 mm 1 m/s 738 mmHg 92%
    12:00 +16°C° 0.2 mm 1 m/s 738 mmHg 91%
    13:00 +16°C° 0.2 mm 1 m/s 738 mmHg 90%
    14:00 +18°C° 0.2 mm 1 m/s 738 mmHg 89%
    15:00 +18°C° 0.1 mm 1 m/s 738 mmHg 84%
    16:00 +18°C° 0.1 mm 2 m/s 738 mmHg 79%
    17:00 +19°C° 0.1 mm 2 m/s 738 mmHg 73%
    18:00 +18°C° 0.4 mm 2 m/s 738 mmHg 80%
    19:00 +16°C° 0.4 mm 2 m/s 738 mmHg 87%
    20:00 +15°C° 0.4 mm 2 m/s 738 mmHg 93%
    21:00 +14°C° 0 mm 2 m/s 739 mmHg 94%
    22:00 +14°C° 0 mm 1 m/s 739 mmHg 94%
    23:00 +13°C° 0 mm 1 m/s 739 mmHg 95%

    20 Iulie, Sâmbătă

    Timp Temperatura Precipitaţii Vânt Presiune Umiditate
    00:00 +13°C° 0 mm 2 m/s 739 mmHg 96%
    01:00 +14°C° 0 mm 2 m/s 739 mmHg 97%
    02:00 +13°C° 0 mm 3 m/s 740 mmHg 98%
    03:00 +13°C° 0.2 mm 3 m/s 740 mmHg 98%
    04:00 +14°C° 0.2 mm 3 m/s 740 mmHg 97%
    05:00 +14°C° 0.2 mm 3 m/s 741 mmHg 97%
    06:00 +16°C° 0.1 mm 3 m/s 741 mmHg 95%
    07:00 +16°C° 0.1 mm 3 m/s 741 mmHg 93%
    08:00 +16°C° 0.1 mm 3 m/s 742 mmHg 92%
    09:00 +17°C° 0.1 mm 3 m/s 742 mmHg 88%
    10:00 +18°C° 0.1 mm 4 m/s 742 mmHg 84%
    11:00 +19°C° 0.1 mm 4 m/s 743 mmHg 80%
    12:00 +19°C° 0.1 mm 4 m/s 743 mmHg 76%
    13:00 +20°C° 0.1 mm 4 m/s 744 mmHg 72%
    14:00 +21°C° 0.1 mm 5 m/s 744 mmHg 68%
    15:00 +20°C° 0.1 mm 5 m/s 744 mmHg 70%
    16:00 +20°C° 0.1 mm 5 m/s 744 mmHg 72%
    17:00 +19°C° 0.1 mm 5 m/s 745 mmHg 74%
    18:00 +18°C° 0 mm 4 m/s 745 mmHg 78%
    19:00 +18°C° 0 mm 3 m/s 745 mmHg 82%
    20:00 +17°C° 0 mm 2 m/s 745 mmHg 86%
    21:00 +16°C° 0 mm 3 m/s 745 mmHg 89%
    22:00 +14°C° 0 mm 3 m/s 746 mmHg 92%
    23:00 +13°C° 0 mm 3 m/s 746 mmHg 95%

    21 Iulie, Duminică

    Timp Temperatura Precipitaţii Vânt Presiune Umiditate
    00:00 +13°C° 0 mm 3 m/s 746 mmHg 96%
    01:00 +13°C° 0 mm 3 m/s 746 mmHg 97%
    02:00 +14°C° 0 mm 2 m/s 746 mmHg 98%
    03:00 +14°C° 0 mm 2 m/s 747 mmHg 97%
    04:00 +14°C° 0 mm 2 m/s 747 mmHg 96%
    05:00 +14°C° 0 mm 2 m/s 747 mmHg 95%
    06:00 +15°C° 0 mm 2 m/s 747 mmHg 88%
    07:00 +17°C° 0 mm 3 m/s 747 mmHg 80%
    08:00 +18°C° 0 mm 3 m/s 747 mmHg 73%
    09:00 +19°C° 0 mm 3 m/s 747 mmHg 65%
    10:00 +20°C° 0 mm 3 m/s 748 mmHg 57%
    11:00 +22°C° 0 mm 3 m/s 748 mmHg 50%
    12:00 +22°C° 0 mm 3 m/s 748 mmHg 49%
    13:00 +22°C° 0 mm 3 m/s 748 mmHg 48%
    14:00 +24°C° 0 mm 3 m/s 747 mmHg 47%
    15:00 +22°C° 0 mm 3 m/s 747 mmHg 52%
    16:00 +21°C° 0 mm 3 m/s 748 mmHg 57%
    17:00 +21°C° 0 mm 3 m/s 748 mmHg 62%
    18:00 +19°C° 0 mm 2 m/s 748 mmHg 67%
    19:00 +17°C° 0 mm 2 m/s 748 mmHg 72%
    20:00 +15°C° 0 mm 2 m/s 748 mmHg 77%
    21:00 +14°C° 0 mm 1 m/s 748 mmHg 82%
    22:00 +13°C° 0 mm 1 m/s 748 mmHg 87%
    23:00 +12°C° 0 mm 1 m/s 748 mmHg 91%

    22 Iulie, Luni

    Timp Temperatura Precipitaţii Vânt Presiune Umiditate
    00:00 +12°C° 0 mm 1 m/s 748 mmHg 91%
    01:00 +12°C° 0 mm 1 m/s 748 mmHg 91%
    02:00 +12°C° 0 mm 1 m/s 748 mmHg 91%
    03:00 +13°C° 0 mm 1 m/s 748 mmHg 89%
    04:00 +13°C° 0 mm 1 m/s 748 mmHg 87%
    05:00 +14°C° 0 mm 2 m/s 748 mmHg 86%
    06:00 +15°C° 0 mm 2 m/s 748 mmHg 80%
    07:00 +17°C° 0 mm 2 m/s 748 mmHg 75%
    08:00 +18°C° 0 mm 2 m/s 748 mmHg 70%
    09:00 +20°C° 0 mm 2 m/s 748 mmHg 64%
    10:00 +21°C° 0 mm 2 m/s 749 mmHg 57%
    11:00 +23°C° 0 mm 2 m/s 749 mmHg 51%
    12:00 +24°C° 0 mm 3 m/s 748 mmHg 50%
    13:00 +24°C° 0 mm 3 m/s 748 mmHg 49%
    14:00 +24°C° 0 mm 3 m/s 748 mmHg 48%
    15:00 +24°C° 0 mm 3 m/s 748 mmHg 49%
    16:00 +24°C° 0 mm 3 m/s 748 mmHg 51%
    17:00 +22°C° 0 mm 3 m/s 748 mmHg 52%
    18:00 +20°C° 0 mm 3 m/s 748 mmHg 59%
    19:00 +18°C° 0 mm 2 m/s 748 mmHg 65%
    20:00 +16°C° 0 mm 2 m/s 748 mmHg 71%
    21:00 +15°C° 0 mm 2 m/s 748 mmHg 73%
    22:00 +14°C° 0 mm 2 m/s 748 mmHg 75%
    23:00 +13°C° 0 mm 2 m/s 749 mmHg 77%
    Arată mai mult